Track PROGRESS MS-34 now! 10-day predictions PROGRESS MS-34 is classified as:
1 68837U 26093A 26135.16618096 .00004382 00000-0 87007-4 0 9999 2 68837 51.6313 103.5621 0007452 60.7339 299.4393 15.49219006 2926